SCP
0 0 0 0 0 0 0 0 0 0 0 0 0 0 0 0 0 0 0 0 0 0 0 0 0 0 0 0 0 0 0 0 0 0 0 0 0 0
0 0 0 0 0 0 0 0 0 0 0 0 0 0 0 0 0 0 0 0 0 0 0 0 0 0 0 0 0 0 0 0 0 0 0 0 0 0
0 0 0 0 0 0 0 0 0 0 0 0 0 0 0 0 0 0 0 0 0 0 0 0 0 0 0 0 0 0 0 0 0 0 0 0 0 0
0 0 0 0 0 0 0 0 0 0 0 0 0 0 0 0 0 0 0 0 0 0 0 0 0 0 0 0 0 0 0 0 0 0 0 0 0 0
0 0 0 0 0 0 0 0 0 0 0 0 0 0 0 0 0 0 0 0 0 0 0 0 0 0 0 0 0 0 0 0 0 0 0 0 0 0
0 0 0 0 0 0 0 0 0 0 0 0 0 0 0 0 0 0 0 0 0 0 0 0 0 0 0 0 0 0 0 0 0 0 0 0 0 0
0 0 0 0 0 0 0 0 0 0 0 0 0 0 0 0 0 0 0 0 0 0 0 0 0 0 0 0 0 0 0 0 0 0 0 0 0 0
0 0 0 0 0 0 0 0 0 0 0 0 -0 0 0 0 0 0 0 0 0 0 0 0 0 0 0 0 0 0 0 0 0 0 0 0 0 0
0 0 0 0 0 0 0 0 0 0 0 -0 0 0 0 0 0 0 0 0 0 0 0 0 0 0 0 0 0 0 -0 -0 0 0 0 -0 -0 0
0 0 0 0 0 0 0 0 0 -0 -0 -0 0 0 0 0 0 0 0 0 0 0 0 0 0 0 0 0 0 0 0 0 -0 -0 -0 -0 -0 -0
0 0 0 0 0 0 0 0 -0 -0 -0 -0 -0 0 0 0 0 0 0 0 0 0 0 0 0 0 0 0 0 0 0 0 -0 -0 -0 -0 -0 -0
0 0 0 0 0 0 0 0 0 -0 0 0 0 0 0 0 0 0 0 0 0 0 0 0 0 0 0 0 0 0 0 0 0 0 0 -0 -0 -0
0 0 0 0 0 0 0 -0 0 0 0 0 0 0 0 0 0 0 0 0 0 0 0 0 0 0 0 0 0 0 0 -0 -0 -0 -0 -0 0 -0
0 0 0 0 0 0 -0 -0 0 0 0 0 0 0 0 0 0 0 0 0 0 0 0 0 0 0 0 0 0 0 0 0 -0 -0 -0 -0 0 0
0 0 0 0 0 0 -0 -0 0 0 0 0 0 0 0 0 0 0 0 0 0 0 0 0 0 0 0 0 0 0 0 0 -0 -0 -0 -0 -0 -0
0 0 0 0 0 -0 -0 -0 -0 -0 -0 0 0 0 0 0 0 0 0 0 0 0 0 0 0 0 0 0 0 0 0 0 -0 -0 -0 -0 -0 -0
0 0 0 0 0 -0 -0 -0 -0 -0 0 0 0 0 0 0 0 0 0 0 0 0 0 0 0 0 0 0 0 0 -0 -0 0 -0 -0 -0 -0 -0
0 0 0 0 0 -0 -0 -0 -0 -0 0 0 0 0 0 0 0 0 0 0 0 0 0 0 0 0 0 0 0 0 0 0 0 -0 -0 -0 -0 -0
0 0 0 0 0 0 -0 0 0 -0 0 0 0 0 0 0 0 0 0 0 0 0 0 0 0 0 0 0 0 0 0 0 -0 -0 -0 -0 -0 -0
0 0 0 0 0 0 0 0 0 0 0 0 0 0 0 0 0 0 0 0 0 0 0 0 0 0 0 0 0 0 0 0 0 -0 -0 -0 -0 0
0 0 0 0 0 0 0 0 0 0 0 0 0 0 0 0 0 0 0 0 0 0 0 0 0 0 0 0 0 0 0 0 0 0 0 -0 -0 -0
0 0 0 0 0 0 0 0 0 0 0 0 0 0 0 0 0 0 0 0 0 0 0 0 0 0 0 0 0 0 0 0 0 0 0 0 -0 -0
0 0 0 0 0 0 0 0 0 0 0 0 0 0 0 0 0 0 0 0 0 0 0 0 0 0 0 0 0 0 0 0 0 0 0 0 -0 -0
Wind_Speed_500mb
11 7 9 9 9 8 10 9 8 8 6 8 6 8 12 19 31 42 47 38 31 28 30 33 38 41 41 48 47 43 42 43 45 46 52 52 46 45
14 11 10 11 9 9 10 13 12 10 10 1 3 5 15 29 37 39 32 32 25 26 28 32 35 37 41 45 43 43 46 47 45 46 47 48 48 48
17 14 11 12 11 7 6 5 6 2 8 9 4 9 22 30 30 25 27 28 28 26 29 29 34 37 38 35 37 43 49 51 49 45 44 44 48 45
21 17 12 18 14 8 7 8 6 5 4 8 3 10 12 16 23 24 27 26 29 29 31 30 30 34 39 40 39 44 46 47 48 43 43 46 45 39
26 19 18 21 15 13 11 9 8 7 5 7 6 12 12 17 23 25 28 24 25 35 37 36 38 37 37 37 43 49 46 49 56 50 44 41 43 44
32 27 25 18 14 13 10 9 9 10 9 8 14 14 12 19 28 31 29 28 30 37 41 42 37 37 36 36 43 51 49 49 54 56 53 44 40 42
33 33 28 19 15 13 12 13 11 10 8 10 15 13 16 21 29 30 29 28 32 39 41 43 48 41 39 38 45 48 52 53 55 57 56 50 42 41
44 40 30 23 16 13 12 12 11 9 11 21 17 17 17 22 28 30 31 35 41 40 41 43 47 51 43 41 41 46 51 56 55 54 55 57 55 46
40 39 30 26 15 13 15 12 11 11 20 17 15 14 17 19 21 26 31 34 36 37 37 47 49 51 51 39 39 42 51 56 55 53 53 55 61 54
42 37 32 26 17 17 19 16 15 21 18 14 13 12 13 16 16 24 28 35 35 30 36 50 51 50 58 44 43 49 49 52 62 55 53 55 59 63
50 37 31 21 18 19 22 21 28 19 14 14 11 10 10 14 13 19 27 37 38 31 48 54 52 51 51 58 44 47 47 49 63 56 54 53 56 64
40 45 38 25 19 24 25 34 28 21 17 11 8 10 5 5 12 16 26 30 40 38 47 53 53 53 56 61 52 46 46 48 59 66 65 55 50 60
51 51 45 30 24 29 35 35 28 21 14 12 16 19 9 10 8 14 20 26 34 40 39 50 54 50 51 59 52 52 48 51 57 66 65 53 44 59
58 55 42 29 29 33 37 36 29 21 17 20 21 17 10 9 11 12 21 27 33 37 41 42 52 50 49 53 50 51 52 48 55 65 64 59 51 56
62 55 43 31 29 36 38 36 32 27 23 18 16 8 8 8 15 19 21 26 32 37 45 39 47 47 42 39 40 47 56 52 53 57 60 59 72 65
63 57 48 38 32 41 40 37 35 28 22 15 13 1 7 14 15 20 23 32 34 39 40 33 37 48 46 37 39 45 46 53 48 52 54 51 56 69
62 59 55 51 47 50 46 41 36 28 19 13 11 5 6 15 9 13 22 27 34 42 39 39 34 40 44 56 44 44 43 45 39 48 51 56 50 58
63 58 62 59 53 56 48 43 36 28 21 15 8 11 10 10 13 14 18 26 37 42 45 43 44 49 53 60 54 50 38 40 37 42 48 55 55 42
62 63 56 51 55 56 50 42 34 27 25 25 20 18 15 14 16 20 26 31 34 39 44 43 43 49 55 62 64 44 40 38 35 43 40 52 53 51
68 64 55 52 54 55 48 39 33 28 24 21 26 26 19 18 20 24 32 38 34 39 41 44 41 43 44 48 63 36 30 31 36 40 34 48 47 39
71 67 59 53 58 52 45 36 36 31 23 21 23 26 26 23 23 31 33 28 31 36 37 45 40 38 35 41 56 32 26 25 31 33 30 45 50 47
69 60 58 57 57 54 47 40 36 37 31 26 27 31 33 30 30 32 32 28 32 33 36 45 37 32 30 39 45 29 25 23 22 24 26 38 46 49
70 60 55 54 57 58 52 44 41 40 39 32 26 26 26 31 31 31 30 25 25 30 34 42 33 29 28 35 34 21 22 24 23 22 14 25 33 40
Wind_Direction_500mb
246 255 253 260 257 250 259 250 234 200 200 292 318 285 298 321 332 343 343 349 352 341 331 334 336 337 337 334 339 339 334 327 319 314 310 307 307 305
241 256 265 274 254 241 244 253 263 244 192 123 128 229 318 329 344 350 1 10 5 355 341 337 344 339 330 333 336 335 332 328 327 318 314 313 301 296
236 243 261 263 243 214 209 237 257 226 150 169 218 304 325 334 349 9 11 11 7 356 351 340 340 342 349 348 342 338 336 334 327 319 316 316 307 292
231 227 243 233 227 223 164 152 175 186 164 180 269 321 344 30 18 16 16 10 15 9 353 346 337 339 348 351 349 348 344 339 337 328 321 321 322 299
221 224 217 212 209 190 180 174 175 166 145 135 81 84 66 29 14 14 6 21 29 18 8 4 354 349 347 351 355 353 351 354 354 341 332 329 327 321
209 209 199 186 185 179 177 165 156 145 147 112 108 95 54 31 16 8 20 29 30 31 30 23 11 1 355 359 0 359 356 356 353 357 351 338 323 317
206 195 180 178 173 172 177 173 176 179 150 118 122 98 67 33 23 22 29 28 21 18 19 20 20 6 6 4 3 1 354 351 349 348 354 350 325 316
193 191 177 176 174 174 175 176 168 164 150 139 117 95 59 45 47 39 24 18 10 2 357 6 7 9 3 359 358 359 352 347 339 342 344 349 346 323
198 189 177 181 176 168 180 171 167 157 141 135 102 87 66 46 41 21 15 13 3 0 349 354 357 355 3 358 359 351 348 349 348 341 337 338 346 344
188 202 184 175 174 173 177 178 168 151 141 119 103 70 71 42 36 15 8 4 356 359 355 352 356 353 354 2 355 356 353 351 349 346 341 338 340 348
191 198 180 181 174 179 180 172 163 156 131 111 86 83 61 42 24 11 3 0 0 4 1 354 354 343 350 352 351 354 358 352 357 357 349 341 337 347
185 191 181 183 187 177 174 169 163 154 137 141 115 102 71 35 18 3 3 8 5 1 357 350 350 350 348 350 353 359 0 356 355 355 351 345 341 349
182 180 172 179 180 172 171 169 173 165 158 138 110 93 74 87 19 353 1 2 359 6 357 354 350 348 348 346 354 358 355 356 355 357 357 353 343 351
186 176 168 172 174 173 173 176 178 164 146 133 121 113 114 41 27 7 359 356 358 354 353 349 348 344 341 342 355 358 1 5 0 1 -0 0 352 349
185 176 179 178 173 176 172 177 171 160 147 136 114 84 30 353 342 333 336 350 357 1 356 349 353 345 345 345 349 1 356 355 0 3 5 7 13 13
191 185 184 182 183 181 179 175 170 163 156 136 103 156 324 344 326 328 337 350 349 346 346 344 357 4 355 346 349 357 359 354 359 5 8 0 3 12
196 194 194 192 189 185 181 178 175 174 170 146 98 230 298 337 347 327 335 352 353 351 349 351 341 350 355 2 355 355 357 359 4 5 10 15 9 9
196 202 195 193 193 190 190 190 189 196 200 194 196 243 264 316 324 329 339 345 342 340 346 344 338 338 351 0 2 356 2 357 1 8 11 11 15 13
193 190 192 199 197 193 192 198 206 215 231 234 232 245 260 278 293 307 320 328 342 342 345 339 335 335 345 348 355 7 5 2 5 7 7 16 19 23
199 196 195 195 190 193 201 211 214 216 226 233 236 247 272 270 275 296 307 313 327 336 339 339 334 339 343 345 348 357 7 3 3 9 13 20 20 24
207 206 203 200 201 206 209 213 214 220 232 239 256 262 261 268 270 294 302 313 324 332 334 333 329 338 336 336 341 348 4 3 5 6 14 23 22 26
216 216 211 210 207 211 213 217 221 225 232 243 259 268 265 260 266 291 294 305 318 323 330 328 324 333 328 333 340 341 353 359 14 8 14 24 23 24
219 218 211 212 212 215 220 222 229 235 237 239 257 263 261 252 272 278 286 307 323 323 324 322 320 326 325 330 335 339 343 351 6 18 7 28 21 20
Wind_Speed_850mb
11 7 9 9 9 8 10 9 8 8 6 8 6 8 12 19 31 42 47 38 31 28 30 33 38 41 41 48 47 43 42 43 45 46 52 52 46 45
14 11 10 11 9 9 10 13 12 10 10 1 3 5 15 29 37 39 32 32 25 26 28 32 35 37 41 45 43 43 46 47 45 46 47 48 48 48
17 14 11 12 11 7 6 5 6 2 8 9 4 9 22 30 30 25 27 28 28 26 29 29 34 37 38 35 37 43 49 51 49 45 44 44 48 45
21 17 12 18 14 8 7 8 6 5 4 8 3 10 12 16 23 24 27 26 29 29 31 30 30 34 39 40 39 44 46 47 48 43 43 46 45 39
26 19 18 21 15 13 11 9 8 7 5 7 6 12 12 17 23 25 28 24 25 35 37 36 38 37 37 37 43 49 46 49 56 50 44 41 43 44
32 27 25 18 14 13 10 9 9 10 9 8 14 14 12 19 28 31 29 28 30 37 41 42 37 37 36 36 43 51 49 49 54 56 53 44 40 42
33 33 28 19 15 13 12 13 11 10 8 10 15 13 16 21 29 30 29 28 32 39 41 43 48 41 39 38 45 48 52 53 55 57 56 50 42 41
44 40 30 23 16 13 12 12 11 9 11 21 17 17 17 22 28 30 31 35 41 40 41 43 47 51 43 41 41 46 51 56 55 54 55 57 55 46
40 39 30 26 15 13 15 12 11 11 20 17 15 14 17 19 21 26 31 34 36 37 37 47 49 51 51 39 39 42 51 56 55 53 53 55 61 54
42 37 32 26 17 17 19 16 15 21 18 14 13 12 13 16 16 24 28 35 35 30 36 50 51 50 58 44 43 49 49 52 62 55 53 55 59 63
50 37 31 21 18 19 22 21 28 19 14 14 11 10 10 14 13 19 27 37 38 31 48 54 52 51 51 58 44 47 47 49 63 56 54 53 56 64
40 45 38 25 19 24 25 34 28 21 17 11 8 10 5 5 12 16 26 30 40 38 47 53 53 53 56 61 52 46 46 48 59 66 65 55 50 60
51 51 45 30 24 29 35 35 28 21 14 12 16 19 9 10 8 14 20 26 34 40 39 50 54 50 51 59 52 52 48 51 57 66 65 53 44 59
58 55 42 29 29 33 37 36 29 21 17 20 21 17 10 9 11 12 21 27 33 37 41 42 52 50 49 53 50 51 52 48 55 65 64 59 51 56
62 55 43 31 29 36 38 36 32 27 23 18 16 8 8 8 15 19 21 26 32 37 45 39 47 47 42 39 40 47 56 52 53 57 60 59 72 65
63 57 48 38 32 41 40 37 35 28 22 15 13 1 7 14 15 20 23 32 34 39 40 33 37 48 46 37 39 45 46 53 48 52 54 51 56 69
62 59 55 51 47 50 46 41 36 28 19 13 11 5 6 15 9 13 22 27 34 42 39 39 34 40 44 56 44 44 43 45 39 48 51 56 50 58
63 58 62 59 53 56 48 43 36 28 21 15 8 11 10 10 13 14 18 26 37 42 45 43 44 49 53 60 54 50 38 40 37 42 48 55 55 42
62 63 56 51 55 56 50 42 34 27 25 25 20 18 15 14 16 20 26 31 34 39 44 43 43 49 55 62 64 44 40 38 35 43 40 52 53 51
68 64 55 52 54 55 48 39 33 28 24 21 26 26 19 18 20 24 32 38 34 39 41 44 41 43 44 48 63 36 30 31 36 40 34 48 47 39
71 67 59 53 58 52 45 36 36 31 23 21 23 26 26 23 23 31 33 28 31 36 37 45 40 38 35 41 56 32 26 25 31 33 30 45 50 47
69 60 58 57 57 54 47 40 36 37 31 26 27 31 33 30 30 32 32 28 32 33 36 45 37 32 30 39 45 29 25 23 22 24 26 38 46 49
70 60 55 54 57 58 52 44 41 40 39 32 26 26 26 31 31 31 30 25 25 30 34 42 33 29 28 35 34 21 22 24 23 22 14 25 33 40
Wind_Direction_850mb
246 255 253 260 257 250 259 250 234 200 200 292 318 285 298 321 332 343 343 349 352 341 331 334 336 337 337 334 339 339 334 327 319 314 310 307 307 305
241 256 265 274 254 241 244 253 263 244 192 123 128 229 318 329 344 350 1 10 5 355 341 337 344 339 330 333 336 335 332 328 327 318 314 313 301 296
236 243 261 263 243 214 209 237 257 226 150 169 218 304 325 334 349 9 11 11 7 356 351 340 340 342 349 348 342 338 336 334 327 319 316 316 307 292
231 227 243 233 227 223 164 152 175 186 164 180 269 321 344 30 18 16 16 10 15 9 353 346 337 339 348 351 349 348 344 339 337 328 321 321 322 299
221 224 217 212 209 190 180 174 175 166 145 135 81 84 66 29 14 14 6 21 29 18 8 4 354 349 347 351 355 353 351 354 354 341 332 329 327 321
209 209 199 186 185 179 177 165 156 145 147 112 108 95 54 31 16 8 20 29 30 31 30 23 11 1 355 359 0 359 356 356 353 357 351 338 323 317
206 195 180 178 173 172 177 173 176 179 150 118 122 98 67 33 23 22 29 28 21 18 19 20 20 6 6 4 3 1 354 351 349 348 354 350 325 316
193 191 177 176 174 174 175 176 168 164 150 139 117 95 59 45 47 39 24 18 10 2 357 6 7 9 3 359 358 359 352 347 339 342 344 349 346 323
198 189 177 181 176 168 180 171 167 157 141 135 102 87 66 46 41 21 15 13 3 0 349 354 357 355 3 358 359 351 348 349 348 341 337 338 346 344
188 202 184 175 174 173 177 178 168 151 141 119 103 70 71 42 36 15 8 4 356 359 355 352 356 353 354 2 355 356 353 351 349 346 341 338 340 348
191 198 180 181 174 179 180 172 163 156 131 111 86 83 61 42 24 11 3 0 0 4 1 354 354 343 350 352 351 354 358 352 357 357 349 341 337 347
185 191 181 183 187 177 174 169 163 154 137 141 115 102 71 35 18 3 3 8 5 1 357 350 350 350 348 350 353 359 0 356 355 355 351 345 341 349
182 180 172 179 180 172 171 169 173 165 158 138 110 93 74 87 19 353 1 2 359 6 357 354 350 348 348 346 354 358 355 356 355 357 357 353 343 351
186 176 168 172 174 173 173 176 178 164 146 133 121 113 114 41 27 7 359 356 358 354 353 349 348 344 341 342 355 358 1 5 0 1 -0 0 352 349
185 176 179 178 173 176 172 177 171 160 147 136 114 84 30 353 342 333 336 350 357 1 356 349 353 345 345 345 349 1 356 355 0 3 5 7 13 13
191 185 184 182 183 181 179 175 170 163 156 136 103 156 324 344 326 328 337 350 349 346 346 344 357 4 355 346 349 357 359 354 359 5 8 0 3 12
196 194 194 192 189 185 181 178 175 174 170 146 98 230 298 337 347 327 335 352 353 351 349 351 341 350 355 2 355 355 357 359 4 5 10 15 9 9
196 202 195 193 193 190 190 190 189 196 200 194 196 243 264 316 324 329 339 345 342 340 346 344 338 338 351 0 2 356 2 357 1 8 11 11 15 13
193 190 192 199 197 193 192 198 206 215 231 234 232 245 260 278 293 307 320 328 342 342 345 339 335 335 345 348 355 7 5 2 5 7 7 16 19 23
199 196 195 195 190 193 201 211 214 216 226 233 236 247 272 270 275 296 307 313 327 336 339 339 334 339 343 345 348 357 7 3 3 9 13 20 20 24
207 206 203 200 201 206 209 213 214 220 232 239 256 262 261 268 270 294 302 313 324 332 334 333 329 338 336 336 341 348 4 3 5 6 14 23 22 26
216 216 211 210 207 211 213 217 221 225 232 243 259 268 265 260 266 291 294 305 318 323 330 328 324 333 328 333 340 341 353 359 14 8 14 24 23 24
219 218 211 212 212 215 220 222 229 235 237 239 257 263 261 252 272 278 286 307 323 323 324 322 320 326 325 330 335 339 343 351 6 18 7 28 21 20